Dewpoint
73 71 71 70 70 69 67 65 55 61 60 55 55 56 55 62 62 61 59 62 58 64 62 63 62 62 60 59 59 63 63 55 58 50 48 62 69 70 70 72 73 73 73 74 75 75 75 75 75 76 76 76 76 76 76 76 76 76 76 76 76 76 76 76 76 76 76 76 76 76 76 76 76 76 75 75 75 75 75 74 75 74 74 74 74 76 75 75 75 76 75 75 75 75 75 75 75
70 69 70 69 69 68 64 67 58 57 57 53 54 59 59 62 60 59 58 60 60 62 62 61 63 66 65 63 63 59 61 64 65 65 66 68 69 69 71 72 73 73 74 74 74 74 74 75 76 76 76 77 76 76 77 76 76 76 76 76 76 76 76 76 76 76 76 76 75 76 75 75 75 75 75 75 75 75 75 74 74 75 74 74 74 75 75 75 75 75 75 75 75 75 75 75 75
68 68 68 68 68 70 68 67 55 55 53 51 54 59 62 59 59 58 59 60 65 61 61 61 63 64 63 60 59 59 59 64 66 66 67 69 67 69 72 72 73 73 74 74 74 74 74 74 76 76 76 77 76 77 77 77 77 77 76 76 76 76 76 76 75 76 76 75 76 76 75 75 75 74 75 75 75 75 75 74 74 74 74 74 74 74 74 74 75 75 75 76 75 75 75 75 76
67 68 66 66 66 69 63 61 58 56 53 52 54 59 59 59 59 59 60 62 63 59 60 59 61 62 62 60 61 62 62 63 66 66 66 67 67 71 71 73 74 74 74 73 73 73 74 74 75 76 76 76 76 77 77 77 76 76 76 76 76 76 76 76 75 76 75 75 75 75 75 75 75 75 75 75 74 74 75 74 74 75 75 73 74 74 74 74 75 75 75 75 75 75 75 76 75
68 70 71 67 66 62 62 60 59 58 53 55 53 60 61 61 58 60 63 63 61 59 59 60 59 62 63 60 60 60 63 65 66 68 67 69 71 71 72 73 73 73 73 73 73 73 74 75 76 76 76 76 76 76 76 76 76 76 76 76 76 76 76 75 75 75 76 75 75 75 75 75 75 74 75 75 75 74 74 74 74 75 75 74 74 74 74 75 75 76 75 75 75 75 75 75 76
70 70 73 69 64 68 64 58 57 55 58 61 58 59 60 62 62 62 64 64 63 59 59 60 58 58 60 62 63 63 64 62 67 67 68 69 71 71 72 73 72 72 72 73 73 73 74 76 76 77 76 76 76 76 76 76 77 76 76 76 76 76 75 75 75 75 75 75 75 75 75 75 74 74 74 75 75 75 74 74 74 75 75 75 74 74 76 76 75 75 74 74 75 74 75 75 75
69 70 71 68 67 68 59 57 56 57 59 62 60 60 61 62 62 64 63 58 61 59 60 59 59 59 58 61 63 65 67 67 67 67 69 70 71 71 72 72 71 72 72 73 73 73 74 76 77 77 76 76 76 76 76 76 76 76 76 76 76 75 75 75 75 75 76 75 75 74 74 75 74 74 74 74 75 75 74 75 74 74 74 74 74 75 76 75 75 75 74 74 75 75 75 75 75
72 69 67 63 61 62 58 58 57 59 60 61 62 61 62 63 63 63 60 55 57 57 58 58 59 60 60 63 62 65 66 67 68 69 70 70 71 71 71 71 71 71 73 73 73 74 76 77 77 75 75 76 76 76 76 76 76 76 76 76 76 76 75 75 74 75 75 75 75 75 75 75 75 74 74 75 74 74 75 74 74 74 74 74 75 75 75 75 75 75 75 75 75 75 75 75 75
73 69 69 63 59 61 58 58 58 62 61 62 62 64 64 64 64 64 61 56 58 58 59 59 59 58 60 62 62 66 67 68 69 70 69 70 70 71 70 70 71 72 73 73 73 75 76 77 76 76 76 76 76 76 76 76 76 76 76 75 76 76 75 75 75 75 75 75 75 75 75 75 75 74 74 74 74 74 74 75 75 74 74 74 75 74 74 74 75 75 75 75 74 74 74 76 75
69 69 62 61 62 56 58 58 58 60 60 62 63 64 64 65 63 64 62 56 58 58 58 59 60 60 62 61 63 65 66 68 69 69 69 70 70 70 70 71 72 73 73 73 74 75 76 76 76 76 76 76 76 76 76 76 75 75 75 75 75 75 75 74 74 75 74 74 74 74 74 75 75 74 74 74 74 74 74 74 74 74 74 74 75 75 74 74 75 75 75 75 75 75 76 75 75
63 68 67 60 57 56 55 56 59 60 61 63 64 65 65 64 64 63 63 56 57 58 60 62 61 61 61 62 63 66 67 68 68 68 69 69 69 69 70 72 72 73 73 74 75 75 75 74 76 76 76 76 76 76 76 75 75 75 75 76 75 75 75 74 74 75 74 74 74 74 74 75 74 74 74 74 74 74 75 74 74 74 75 75 74 74 74 74 75 75 75 75 75 75 75 75 75
63 63 64 57 56 56 58 57 59 60 62 64 62 64 66 64 65 64 58 56 58 59 60 60 60 62 61 61 63 66 67 67 68 68 68 69 69 70 71 72 72 73 74 74 75 75 74 75 75 75 76 76 76 76 75 75 75 76 75 75 75 74 74 75 75 74 74 74 74 74 74 74 74 74 74 74 74 74 74 74 74 74 74 74 74 74 74 74 75 75 75 75 75 75 75 75 75
65 65 60 58 58 59 59 58 58 60 61 62 62 63 68 64 62 64 59 57 58 58 57 61 62 61 60 62 65 66 66 67 67 67 68 69 69 70 72 72 73 73 74 75 74 74 74 74 74 75 75 76 75 75 75 75 75 75 75 74 74 74 74 74 74 74 74 74 75 75 75 74 74 74 74 74 74 74 74 74 74 74 75 75 75 75 75 75 75 75 74 74 74 75 75 75 75
65 65 62 58 62 59 59 58 60 58 59 62 64 66 65 63 63 64 60 57 57 58 60 61 61 61 61 63 64 63 64 66 67 67 68 69 69 70 71 72 72 73 74 74 74 74 74 74 75 75 75 75 75 75 75 75 75 75 75 75 74 74 74 74 74 74 75 75 75 75 75 74 74 74 74 74 74 74 75 75 75 75 75 75 75 75 75 75 74 75 75 74 74 75 75 75 75
66 68 62 60 59 60 61 57 58 58 59 62 64 65 65 65 65 65 65 59 59 60 60 61 61 60 59 61 61 62 64 66 67 68 68 69 69 70 71 71 72 73 74 74 74 74 74 74 74 75 75 74 75 74 75 75 75 75 75 75 75 74 74 74 74 74 75 75 75 75 75 74 74 74 74 74 74 74 75 75 74 75 75 75 75 75 75 75 75 75 74 74 75 75 75 75 76
68 66 63 59 58 58 59 59 61 59 59 65 67 66 65 66 66 64 64 63 60 60 60 59 61 60 61 61 62 63 65 66 67 68 68 68 68 69 70 71 72 72 73 73 73 74 74 74 74 74 74 74 74 74 75 75 75 75 75 75 75 75 74 74 74 74 74 75 74 74 74 75 74 74 75 74 74 74 75 74 74 75 75 75 75 75 75 75 75 75 75 74 75 75 75 75 75
70 67 59 59 57 59 60 61 58 56 62 63 66 64 63 62 65 67 68 66 58 59 59 59 58 61 60 61 63 64 64 66 68 68 68 67 68 68 70 70 71 72 72 72 73 73 74 74 74 74 74 74 74 74 74 75 75 75 74 75 75 75 74 74 75 75 75 75 75 76 76 74 74 74 74 74 75 75 74 75 75 75 75 75 75 75 75 75 75 75 75 75 75 75 75 75 75
68 61 58 57 60 59 63 62 60 61 61 63 63 65 63 60 63 65 65 63 60 60 58 60 61 61 62 63 64 64 64 66 66 66 66 67 68 68 68 69 70 70 71 71 73 73 73 73 73 74 73 74 74 75 75 75 75 75 75 74 75 74 75 75 75 74 75 75 76 74 74 75 73 73 74 75 75 75 74 74 75 75 75 75 76 76 76 75 76 76 76 75 76 74 74 74 75
64 62 61 59 62 64 66 66 63 61 61 62 64 65 64 62 64 65 60 59 59 58 59 59 60 61 63 63 63 64 64 65 65 65 65 66 67 67 68 69 69 70 70 71 72 73 73 73 73 73 73 73 74 74 75 75 74 74 74 75 75 75 75 75 74 74 73 73 74 73 74 73 73 73 73 74 75 75 75 75 75 75 75 75 76 76 75 76 76 76 75 75 75 76 74 73 73
67 63 59 61 65 65 66 66 66 68 63 63 64 64 64 64 65 62 60 59 57 57 57 58 59 60 62 62 63 64 64 64 65 65 65 66 66 67 67 68 68 69 70 71 72 73 73 73 73 73 73 73 73 74 74 74 73 74 74 74 74 74 75 74 73 74 73 73 73 73 73 73 73 73 74 74 74 74 74 75 75 75 75 75 76 76 76 76 76 76 75 76 78 77 74 73 73
66 64 61 62 65 64 65 67 66 67 64 64 63 64 64 65 66 64 62 58 56 56 58 59 59 60 61 63 63 64 64 65 65 65 66 66 67 67 68 68 68 69 70 71 72 72 73 73 73 73 73 73 73 74 74 73 73 73 74 74 74 74 74 73 73 74 73 72 72 72 72 72 72 73 74 73 72 73 73 73 74 74 74 75 76 74 74 75 75 73 73 75 73 74 74 74 73
65 65 66 63 66 64 66 65 66 66 66 65 65 63 62 65 65 62 62 56 53 56 58 59 60 61 62 62 63 64 64 65 65 65 66 66 67 67 68 68 69 69 70 71 72 72 73 73 73 73 73 73 73 73 73 74 74 73 73 74 74 74 74 74 74 74 73 72 72 73 73 71 71 72 72 72 73 72 73 73 73 73 73 74 75 73 73 74 73 73 73 73 73 74 74 73 73
62 63 64 64 65 64 66 66 66 66 66 64 63 66 65 64 62 64 63 64 65 57 59 60 61 62 62 63 63 63 64 64 65 65 66 67 67 67 68 68 68 69 70 71 72 72 72 73 73 73 73 73 73 74 74 74 73 73 74 74 74 74 74 74 74 75 73 72 72 73 72 71 72 72 72 72 72 72 72 72 73 73 73 73 75 73 73 74 73 73 73 73 73 74 74 73 73
62 62 61 63 64 64 67 66 68 67 67 64 65 66 64 63 61 66 63 65 64 58 59 60 61 62 62 62 63 63 64 64 65 66 66 67 67 67 68 68 69 70 70 71 71 72 73 73 73 74 74 73 73 74 74 74 74 74 74 75 74 75 75 74 74 75 74 73 73 72 73 72 71 71 71 71 71 71 72 72 72 73 73 73 74 73 73 73 73 73 73 73 73 74 74 74 73
60 59 62 62 64 65 67 67 68 67 66 67 65 64 64 63 64 63 62 62 58 57 58 60 61 61 61 62 62 63 64 64 65 65 66 67 67 68 68 69 69 70 70 70 70 72 73 73 74 74 74 74 73 74 74 74 74 74 75 74 74 76 73 74 74 74 74 74 72 73 73 72 71 71 71 71 72 72 72 72 71 71 72 72 73 74 73 72 73 73 73 74 73 72 73 74 73
60 61 61 60 61 63 67 66 66 67 66 68 62 62 64 64 63 63 64 60 56 56 57 58 59 60 60 61 62 62 63 63 64 65 65 66 67 67 68 69 69 69 70 70 70 72 73 73 73 73 73 73 74 74 74 74 74 74 73 73 74 75 73 74 74 74 74 73 72 73 73 72 72 72 72 71 71 71 72 71 72 72 72 73 73 72 74 73 73 74 74 73 73 73 74 73 75
60 61 60 60 60 61 67 65 66 67 67 68 63 62 63 64 64 60 64 61 55 56 55 57 58 58 59 60 61 61 61 62 63 64 64 65 66 66 67 68 69 69 70 69 70 72 73 72 72 73 73 74 73 73 74 74 74 73 73 74 74 73 73 74 74 74 74 74 73 73 74 74 73 73 72 71 71 71 71 71 71 72 73 73 73 73 74 74 73 72 73 73 72 73 73 74 74
59 60 58 60 63 62 64 65 66 66 65 66 66 65 64 65 65 61 63 56 55 54 55 55 56 56 57 59 59 60 60 60 62 62 63 64 65 66 67 68 68 69 69 69 71 72 72 72 72 72 73 74 74 74 75 73 73 73 73 73 72 73 74 73 73 73 74 73 74 73 74 74 74 73 72 71 71 71 71 71 71 72 73 73 74 73 73 74 73 73 75 75 74 74 74 74 74
58 58 59 61 62 63 64 63 64 65 64 67 65 61 60 62 61 64 62 65 54 54 55 55 56 56 57 58 58 59 59 59 59 61 63 64 64 65 66 67 68 69 69 70 71 72 72 72 71 72 72 73 73 73 74 73 72 72 72 72 73 74 74 73 73 73 73 73 73 73 74 74 75 73 72 72 72 71 72 71 72 74 73 73 74 74 74 74 74 74 73 76 74 74 74 74 75
60 60 60 60 61 61 63 65 63 64 65 66 66 55 58 59 63 64 65 64 55 54 55 55 56 56 57 57 57 58 58 58 58 60 62 62 63 65 65 66 68 68 69 70 71 71 72 72 72 72 72 73 73 73 73 72 72 72 72 72 74 73 73 73 74 74 74 73 73 73 73 73 74 74 72 72 72 71 72 71 71 73 72 73 75 74 73 73 73 74 74 73 76 75 73 73 73
59 60 59 58 58 58 62 63 63 63 67 67 66 54 57 60 64 66 65 65 55 54 55 55 56 56 56 57 57 56 57 57 58 59 60 62 63 64 64 65 66 68 70 70 71 71 72 72 72 72 73 72 74 73 72 71 72 73 71 72 73 73 72 73 73 73 73 73 73 73 73 73 74 75 73 72 72 71 71 71 72 72 73 74 75 74 74 73 74 74 75 73 73 72 72 73 73
58 56 56 60 56 59 61 63 64 61 63 67 66 55 56 59 61 67 67 65 58 55 55 55 55 56 56 56 56 55 56 56 58 59 59 61 62 63 64 64 66 68 69 70 70 70 71 72 73 72 73 72 72 73 71 72 72 71 71 73 72 73 73 73 73 73 73 73 73 73 74 74 75 76 74 73 71 71 72 72 72 73 74 75 75 76 74 73 73 74 74 73 69 71 73 71 71
58 53 54 54 57 58 59 61 64 63 63 66 64 57 58 60 62 66 66 66 60 54 54 54 54 55 55 55 55 54 55 54 56 58 58 60 60 62 63 64 67 68 68 69 70 70 71 71 73 72 72 71 71 72 71 71 71 70 72 72 73 73 72 72 72 73 73 73 73 75 75 76 76 75 76 74 73 72 73 74 74 75 76 76 75 75 74 74 73 74 72 74 72 70 72 72 71
52 51 52 54 55 57 56 60 63 64 63 62 64 60 59 63 64 64 66 66 66 53 53 53 53 54 54 54 53 53 53 53 55 57 58 58 60 62 63 68 67 67 68 68 69 69 70 70 70 71 71 70 70 71 70 70 70 71 72 73 73 72 71 72 72 72 73 73 75 75 75 76 76 75 75 75 74 75 74 74 74 75 76 75 75 73 73 74 73 72 71 73 74 72 71 71 70
45 50 53 56 57 57 56 57 59 62 63 61 62 61 61 62 62 64 65 67 65 53 52 52 53 53 53 52 51 52 52 53 55 56 56 57 60 61 64 66 66 66 67 68 68 69 69 69 70 71 70 69 71 70 70 71 70 71 73 72 71 72 73 72 72 72 74 74 75 75 76 76 76 75 75 76 75 75 74 74 74 75 76 75 75 74 73 74 74 73 73 72 75 73 72 72 72
47 52 54 55 55 55 55 57 60 62 61 61 60 59 61 62 64 65 64 66 64 60 51 52 52 52 52 51 51 51 52 52 54 55 55 57 59 62 64 65 65 65 66 67 68 68 68 69 69 70 69 70 71 70 70 70 70 71 70 72 72 72 72 72 72 72 73 74 75 76 76 76 76 75 75 75 75 74 74 74 74 75 75 74 73 73 72 72 72 73 73 73 73 75 76 75 73
51 53 54 54 54 55 59 58 60 62 60 59 59 60 61 61 61 65 65 65 63 61 53 52 51 52 52 50 51 51 52 51 53 54 55 57 59 62 63 63 63 65 66 67 67 67 68 68 69 68 70 70 71 70 69 69 69 69 70 70 70 70 71 71 72 72 73 74 75 76 77 76 76 75 75 75 75 76 74 74 74 75 75 74 73 72 72 72 74 74 74 75 74 72 71 73 72
49 51 52 53 51 52 56 58 61 63 59 58 61 61 61 61 63 65 66 64 62 61 55 51 51 51 52 50 51 52 52 53 53 54 54 58 60 61 61 61 64 64 65 66 66 67 68 68 68 69 70 69 70 69 69 69 69 68 69 69 70 70 71 71 71 72 73 74 75 76 77 76 75 75 76 75 75 75 74 73 73 74 74 74 74 74 73 77 75 75 75 73 73 72 70 73 72
49 48 51 52 54 56 57 60 61 61 61 58 61 60 61 62 62 63 64 66 65 66 65 53 51 51 52 50 51 53 51 52 52 51 54 58 60 60 60 61 63 64 65 65 66 67 67 68 69 70 70 69 70 70 69 69 70 70 69 69 69 70 72 71 71 73 74 74 75 76 76 76 75 76 76 76 75 74 74 74 73 74 74 75 74 73 73 74 75 75 74 72 71 72 74 74 71
48 49 50 50 53 51 53 58 60 61 61 58 60 58 59 61 62 63 64 66 66 67 67 66 56 53 54 50 51 52 51 51 50 50 53 58 59 59 60 61 63 64 64 65 66 67 67 69 69 70 70 69 70 72 71 69 70 70 70 69 70 70 71 73 73 74 74 74 75 75 76 76 76 76 76 76 75 75 74 74 74 74 74 75 74 73 73 73 74 75 74 75 72 69 70 70 73
47 48 47 49 52 51 51 55 59 60 60 58 58 57 56 59 59 62 64 65 65 67 67 66 65 66 63 58 57 52 51 49 47 50 54 57 57 59 60 62 63 63 63 65 66 66 67 69 69 70 70 69 70 73 71 70 72 72 72 72 73 73 73 73 73 73 74 75 75 74 75 76 76 76 76 76 76 75 75 75 75 75 74 75 75 74 73 74 74 74 73 74 72 70 69 68 69
36 47 47 48 51 50 54 56 55 56 56 59 55 51 51 57 59 61 63 64 63 65 65 64 66 66 65 60 59 59 52 49 46 51 54 56 57 59 61 62 63 63 63 64 66 66 67 69 70 70 70 70 70 71 72 70 73 71 71 70 70 70 70 71 71 72 72 74 74 74 75 75 75 75 76 76 76 76 75 75 75 75 75 75 76 75 74 74 75 75 74 73 73 73 71 67 66
24 39 47 48 51 52 54 53 52 51 51 56 58 48 48 56 57 59 61 62 62 65 64 63 66 66 65 62 64 62 54 50 46 51 54 56 58 59 61 62 63 63 63 64 66 66 67 69 70 70 70 70 70 71 72 71 71 70 70 69 70 69 70 71 72 72 73 74 74 74 75 75 75 75 75 75 75 76 75 75 75 75 75 75 77 75 74 74 74 75 75 74 73 74 74 71 69
17 29 46 49 50 52 53 52 51 51 51 55 56 50 50 51 55 59 61 60 61 62 64 65 66 65 66 66 66 66 61 51 45 51 53 55 58 60 60 62 62 63 63 63 65 67 67 69 69 70 70 71 70 70 72 71 70 70 70 70 70 70 69 70 71 72 73 74 73 74 74 75 75 74 75 75 75 76 76 75 75 75 75 76 77 75 75 75 75 74 75 75 75 76 72 70 70
24 39 47 49 50 51 52 50 48 49 51 51 52 51 50 50 56 61 60 58 59 60 62 64 65 65 66 66 66 66 67 58 47 50 52 54 57 59 60 61 62 63 63 63 65 67 68 70 70 69 70 71 69 69 72 71 72 71 71 70 70 70 70 71 72 73 73 74 73 73 73 74 74 74 75 76 76 76 77 75 76 75 76 75 77 76 76 75 74 74 73 73 71 72 75 73 73
32 47 48 50 50 50 50 49 50 53 47 47 50 49 48 50 55 57 59 59 58 60 62 64 65 63 64 65 65 66 68 64 50 51 51 53 57 59 60 61 62 63 64 64 65 68 68 70 70 69 69 70 69 70 72 71 72 73 72 71 70 70 72 71 72 72 72 73 73 73 73 73 74 74 75 75 76 76 76 76 76 76 75 75 77 76 76 74 74 74 74 74 73 71 74 73 73
39 44 46 46 47 49 51 50 51 48 44 44 48 49 50 47 53 54 56 57 60 61 63 64 65 64 64 66 65 66 68 66 58 52 52 52 57 59 60 60 61 63 64 64 66 68 68 69 70 69 69 70 69 71 71 71 72 72 72 72 71 70 71 71 71 71 71 72 72 72 72 73 74 74 74 75 75 76 76 77 77 76 75 76 77 75 74 74 74 75 75 74 74 73 72 73 73
29 34 42 42 41 44 48 52 47 41 38 40 47 47 49 47 51 55 57 62 63 62 61 62 63 63 63 65 65 65 67 67 62 59 53 52 55 59 60 60 61 62 63 64 66 68 68 68 70 69 70 71 69 72 71 71 72 71 72 72 71 71 71 71 71 70 71 71 71 71 72 72 73 74 74 74 75 76 76 76 77 76 76 75 75 75 74 74 74 75 74 73 73 74 72 73 74
26 31 41 38 37 37 37 43 41 39 35 38 46 47 45 49 52 54 56 58 63 64 63 61 62 62 63 64 64 64 67 68 66 64 57 54 54 57 59 60 61 62 63 64 66 68 68 68 70 69 70 72 69 72 71 72 72 71 72 72 71 72 70 71 71 70 71 71 72 71 71 71 73 73 73 74 75 75 76 75 75 75 74 75 75 74 75 76 75 74 73 74 73 73 73 73 72
23 22 31 34 34 32 30 35 39 36 35 42 45 48 48 51 53 56 56 58 61 63 64 62 62 63 64 64 64 66 68 68 67 67 63 55 54 56 58 60 61 61 62 63 66 68 68 68 70 68 69 72 70 72 71 72 72 72 72 72 72 73 71 71 71 71 72 72 73 71 71 71 72 73 73 74 74 75 75 75 76 75 75 75 75 75 76 76 76 74 74 73 73 74 74 73 73
27 24 26 32 34 30 29 31 31 31 34 45 47 43 44 48 51 58 58 60 61 61 62 63 66 66 65 66 67 66 68 68 68 67 67 68 61 56 56 58 60 61 61 63 66 68 68 68 70 69 69 72 70 71 71 72 72 73 72 72 73 73 71 72 71 72 73 73 73 72 72 72 73 72 73 73 74 74 75 75 75 75 75 75 75 76 77 77 77 76 75 73 73 74 73 73 73
25 26 29 31 31 36 29 32 32 32 41 43 47 48 51 51 55 59 59 59 61 61 61 63 63 64 64 65 65 66 68 68 68 68 68 68 68 69 62 58 60 61 61 63 66 68 68 68 70 69 69 72 71 71 71 72 72 73 73 72 72 73 74 72 73 73 73 73 73 72 72 74 74 73 73 74 74 74 74 75 75 75 75 75 76 77 76 76 76 75 76 75 74 76 74 74 74
24 25 25 27 26 29 33 38 39 42 43 44 49 49 52 55 54 56 59 59 60 61 61 61 63 64 64 64 64 65 66 67 67 68 68 69 68 69 69 68 69 67 61 62 66 68 68 68 69 70 69 72 72 70 72 71 73 72 72 72 72 74 73 72 72 72 72 73 74 73 73 73 74 74 74 74 73 73 74 74 75 75 75 76 77 77 77 76 76 76 76 75 74 75 75 74 74
20 19 21 20 21 29 30 25 33 37 41 42 48 48 49 50 49 57 57 58 58 59 59 60 62 62 62 63 64 65 66 67 68 68 68 68 68 69 70 69 69 69 70 70 69 68 69 69 69 70 70 71 72 71 71 72 72 72 72 72 72 73 73 72 72 72 72 72 73 73 73 73 73 73 74 73 73 73 74 76 75 75 75 76 76 76 76 76 76 75 75 75 76 75 75 74 75
16 15 21 17 25 28 32 27 22 37 40 43 47 47 48 48 48 54 55 57 57 58 58 58 59 61 62 63 64 65 66 67 68 69 69 70 68 68 69 71 72 71 72 72 72 71 69 69 69 70 70 70 72 72 71 72 72 72 72 72 72 72 73 72 72 73 73 72 72 73 73 73 73 73 73 73 73 73 74 75 74 75 75 76 76 76 76 76 76 75 75 75 75 75 74 74 74
22 19 16 24 22 31 27 23 32 40 41 43 44 47 46 51 52 53 55 57 58 56 56 57 59 59 60 62 63 63 63 64 65 68 69 70 70 70 70 70 70 71 72 71 71 72 71 71 71 70 70 70 72 72 72 72 72 72 72 72 72 72 73 72 72 72 72 72 72 72 72 72 73 73 72 71 72 73 74 74 73 73 75 75 75 75 75 75 76 76 75 75 75 75 75 75 75
16 17 18 19 26 24 21 26 20 40 41 42 42 40 43 50 56 57 57 58 59 56 55 56 57 58 59 60 61 62 62 62 62 65 68 69 69 70 70 70 72 73 73 72 73 72 71 72 72 73 72 71 72 72 73 73 73 72 72 72 72 72 72 72 71 71 70 71 71 72 71 71 72 72 71 70 71 72 73 74 73 73 74 74 75 75 75 75 75 76 75 75 75 75 75 75 75
15 15 16 16 20 22 20 21 35 38 41 39 40 39 47 53 56 56 58 59 59 58 55 55 56 58 59 60 60 61 61 61 61 65 68 68 69 70 71 71 72 71 73 73 73 72 72 72 72 72 72 73 73 73 74 74 74 73 72 72 71 72 72 72 71 71 70 70 70 71 70 70 71 70 70 69 70 70 73 73 73 73 73 73 74 74 74 74 75 75 75 75 75 74 74 74 74